User: anonymous   Login
Location: Stigler
(35.2540°N, 95.1230°W)
Time: 21:45:54
(UTC-05:00)
Language:

Cosmos 1805 - Orbit

View from above orbital plane
View from above orbital plane
View from above satellite
View from above satellite

Ground track
Ground track

The orbit data is extracted from the following two-line orbital elements,

1 17191U 86097A   16146.22691700  .00001005  00000-0  58148-4 0  9990
2 17191  82.4749  51.3954 0004427 355.1865   4.9322 15.11163216605044
Epoch (UTC): 25 May 2016 05:26:45
Eccentricity: 0.0004427
inclination: 82.4749°
perigee height: 529 km
apogee height: 536 km
right ascension of ascending node: 51.3954°
argument of perigee: 355.1865°
revolutions per day: 15.11163216
mean anomaly at epoch: 4.9322°
orbit number at epoch: 60504

The dashed part of the orbit path shows where the satellite is in the earth's shadow,  

DLR